Wisconsin Dells, Wisconsin, United States (53965)
Lat: 43.63N, Lon: 89.77W
Wx Zone: WIZ057
Local Info
Past Weather Observations for Friday, October 17, 2014

NOTE: This archive is for the closest National Weather Service station to Wisconsin Dells. Information may differ from the station used for current weather conditions.

Click here for Long-term Archive

Time Weather Temperature Dewpoint Humidity Pressure Winds Precip Visibility
23:55
Partly Cloudy
46°F / 8°C 39°F / 4°C 76% 29.95 in
(1014 mb)
NW 9.2 mph
(NW 15 kph)
- 10SM
23:35
Mostly Cloudy
46°F / 8°C 39°F / 4°C 76% 29.95 in
(1014 mb)
NW 5.8 mph
(NW 9 kph)
- 10SM
23:15
Mostly Cloudy
46°F / 8°C 39°F / 4°C 76% 29.95 in
(1014 mb)
NW 8.1 mph
(NW 13 kph)
- 10SM
22:55
Mostly Cloudy
46°F / 8°C 39°F / 4°C 76% 29.95 in
(1014 mb)
NW 6.9 mph
(NW 11 kph)
- 10SM
22:35
Overcast
46°F / 8°C 39°F / 4°C 76% 29.92 in
(1013 mb)
NW 6.9 mph
(NW 11 kph)
- 10SM
22:15
Overcast
46°F / 8°C 39°F / 4°C 76% 29.92 in
(1013 mb)
NW 6.9 mph
(NW 11 kph)
- 10SM
21:55
Mostly Cloudy
46°F / 8°C 37°F / 3°C 71% 29.92 in
(1013 mb)
NW 4.6 mph
(NW 7 kph)
- 10SM
21:35
Clear
46°F / 8°C 37°F / 3°C 71% 29.92 in
(1013 mb)
NW 4.6 mph
(NW 7 kph)
- 10SM
21:15
Clear
46°F / 8°C 37°F / 3°C 71% 29.92 in
(1013 mb)
NNW 8.1 mph
(NNW 13 kph)
- 10SM
20:55
Clear
48°F / 9°C 37°F / 3°C 66% 29.92 in
(1013 mb)
NW 5.8 mph
(NW 9 kph)
- 10SM
20:35
Partly Cloudy
48°F / 9°C 39°F / 4°C 71% 29.92 in
(1013 mb)
NNW 8.1 mph
(NNW 13 kph)
- 10SM
20:15
Overcast
48°F / 9°C 39°F / 4°C 71% 29.92 in
(1013 mb)
NW 9.2 mph
(NW 15 kph)
- 10SM
19:55
Overcast
50°F / 10°C 37°F / 3°C 62% 29.92 in
(1013 mb)
NNW 8.1 mph
(NNW 13 kph)
- 10SM
19:35
Overcast
50°F / 10°C 39°F / 4°C 67% 29.89 in
(1012 mb)
N 11.5 mph
(N 19 kph)
- 10SM
19:15
Overcast
50°F / 10°C 41°F / 5°C 71% 29.89 in
(1012 mb)
NNW 9.2 mph
(NNW 15 kph)
- 10SM
18:55
Overcast
50°F / 10°C 43°F / 6°C 76% 29.86 in
(1011 mb)
NNW 9.2 mph
(NNW 15 kph)
- 10SM
18:35
Overcast
50°F / 10°C 43°F / 6°C 76% 29.86 in
(1011 mb)
N 6.9 mph
(N 11 kph)
- 10SM
18:15
Overcast
Drizzle
50°F / 10°C 45°F / 7°C 82% 29.83 in
(1010 mb)
N 9.2 mph
(N 15 kph)
- 10SM
17:55
Overcast
50°F / 10°C 45°F / 7°C 82% 29.83 in
(1010 mb)
NW 11.5 mph
(NW 19 kph)
- 10SM
17:35
Overcast
50°F / 10°C 45°F / 7°C 82% 29.8 in
(1009 mb)
NW 8.1 mph
(NW 13 kph)
- 10SM
17:15
Overcast
50°F / 10°C 45°F / 7°C 82% 29.8 in
(1009 mb)
NW 9.2 mph
(NW 15 kph)
- 10SM
16:55
Overcast
50°F / 10°C 45°F / 7°C 82% 29.8 in
(1009 mb)
NW 9.2 mph
(NW 15 kph)
- 10SM
16:35
Overcast
52°F / 11°C 45°F / 7°C 77% 29.77 in
(1008 mb)
NW 11.5 mph
(NW 19 kph)
- 7SM
16:15
Overcast
52°F / 11°C 45°F / 7°C 77% 29.77 in
(1008 mb)
NW 6.9 mph
(NW 11 kph)
- 10SM
15:55
Overcast
52°F / 11°C 45°F / 7°C 77% 29.74 in
(1007 mb)
NNW 10.4 mph
(NNW 17 kph)
- 10SM
15:35
Overcast
52°F / 11°C 46°F / 8°C 82% 29.74 in
(1007 mb)
WNW 8.1 mph
(WNW 13 kph)
- 10SM
15:15
Overcast
Drizzle
50°F / 10°C 46°F / 8°C 88% 29.74 in
(1007 mb)
WNW 8.1 mph
(WNW 13 kph)
- 7SM
14:55
Overcast
Rain
50°F / 10°C 45°F / 7°C 82% 29.74 in
(1007 mb)
WNW 12.7 mph
(WNW 20 kph)
- 5SM
14:35
Overcast
52°F / 11°C 45°F / 7°C 77% 29.71 in
(1006 mb)
WNW 12.7 mph
(WNW 20 kph)
- 10SM
14:15
Overcast
52°F / 11°C 45°F / 7°C 77% 29.71 in
(1006 mb)
NW 12.7 mph
(NW 20 kph)
- 10SM
13:55
Overcast
52°F / 11°C 45°F / 7°C 77% 29.71 in
(1006 mb)
NW 12.7 mph
(NW 20 kph)
- 7SM
13:35
Overcast
52°F / 11°C 45°F / 7°C 77% 29.68 in
(1005 mb)
NW 13.8 mph
(NW 22 kph)
- 10SM
13:15
Overcast
52°F / 11°C 45°F / 7°C 77% 29.68 in
(1005 mb)
WNW 12.7 mph
(WNW 20 kph)
- 10SM
12:55
Overcast
52°F / 11°C 45°F / 7°C 77% 29.68 in
(1005 mb)
NW 12.7 mph
(NW 20 kph)
- 10SM
12:35
Overcast
Light Rain
52°F / 11°C 45°F / 7°C 77% 29.68 in
(1005 mb)
WNW 13.8 mph
(WNW 22 kph)
- 7SM
12:15
Overcast
54°F / 12°C 45°F / 7°C 72% 29.65 in
(1004 mb)
NW 16.1 mph
(NW 26 kph)
- 10SM
11:55
Overcast
54°F / 12°C 45°F / 7°C 72% 29.65 in
(1004 mb)
NW 10.4 mph
(NW 17 kph)
- 10SM
11:35
Overcast
54°F / 12°C 45°F / 7°C 72% 29.65 in
(1004 mb)
NW 12.7 mph
(NW 20 kph)
- 10SM
11:15
Overcast
54°F / 12°C 45°F / 7°C 72% 29.65 in
(1004 mb)
NW 13.8 mph
(NW 22 kph)
- 10SM
10:55
Overcast
54°F / 12°C 45°F / 7°C 72% 29.65 in
(1004 mb)
W 15 mph
(W 24 kph)
- 10SM
10:35
Overcast
54°F / 12°C 45°F / 7°C 72% 29.62 in
(1003 mb)
NW 15 mph
(NW 24 kph)
- 10SM
10:15
Overcast
54°F / 12°C 45°F / 7°C 72% 29.62 in
(1003 mb)
NW 10.4 mph
(NW 17 kph)
- 10SM
09:55
Overcast
54°F / 12°C 45°F / 7°C 72% 29.62 in
(1003 mb)
WNW 16.1 mph
(WNW 26 kph)
- 10SM
09:35
Overcast
54°F / 12°C 46°F / 8°C 77% 29.62 in
(1003 mb)
WNW 9.2 mph
(WNW 15 kph)
- 10SM
09:15
Overcast
54°F / 12°C 46°F / 8°C 77% 29.59 in
(1002 mb)
W 12.7 mph
(W 20 kph)
- 10SM
08:55
Overcast
54°F / 12°C 46°F / 8°C 77% 29.59 in
(1002 mb)
W 11.5 mph
(W 19 kph)
- 10SM
08:35
Overcast
54°F / 12°C 46°F / 8°C 77% 29.59 in
(1002 mb)
WNW 10.4 mph
(WNW 17 kph)
- 10SM
08:15
Overcast
52°F / 11°C 46°F / 8°C 82% 29.59 in
(1002 mb)
WNW 9.2 mph
(WNW 15 kph)
- 10SM
07:55
Overcast
52°F / 11°C 46°F / 8°C 82% 29.59 in
(1002 mb)
W 9.2 mph
(W 15 kph)
- 7SM
07:35
Overcast
52°F / 11°C 46°F / 8°C 82% 29.59 in
(1002 mb)
W 9.2 mph
(W 15 kph)
- 10SM
07:15
Overcast
52°F / 11°C 45°F / 7°C 77% 29.56 in
(1001 mb)
SSW 10.4 mph
(SSW 17 kph)
- 10SM
06:55
Overcast
52°F / 11°C 45°F / 7°C 77% 29.56 in
(1001 mb)
W 8.1 mph
(W 13 kph)
- 10SM
06:35
Overcast
52°F / 11°C 45°F / 7°C 77% 29.56 in
(1001 mb)
W 8.1 mph
(W 13 kph)
- 10SM
06:15
Overcast
50°F / 10°C 45°F / 7°C 82% 29.56 in
(1001 mb)
W 9.2 mph
(W 15 kph)
- 10SM
05:55
Overcast
50°F / 10°C 43°F / 6°C 76% 29.56 in
(1001 mb)
W 9.2 mph
(W 15 kph)
- 10SM
05:35
Mostly Cloudy
50°F / 10°C 43°F / 6°C 76% 29.56 in
(1001 mb)
SSW 8.1 mph
(SSW 13 kph)
- 10SM
05:15
Clear
50°F / 10°C 43°F / 6°C 76% 29.53 in
(1000 mb)
SSW 6.9 mph
(SSW 11 kph)
- 10SM
04:55
Clear
50°F / 10°C 43°F / 6°C 76% 29.56 in
(1001 mb)
SSW 6.9 mph
(SSW 11 kph)
- 10SM
04:35
Clear
50°F / 10°C 43°F / 6°C 76% 29.53 in
(1000 mb)
SSW 8.1 mph
(SSW 13 kph)
- 10SM
04:15
Clear
50°F / 10°C 43°F / 6°C 76% 29.53 in
(1000 mb)
SSW 8.1 mph
(SSW 13 kph)
- 10SM
03:55
Clear
50°F / 10°C 43°F / 6°C 76% 29.53 in
(1000 mb)
SSW 5.8 mph
(SSW 9 kph)
- 10SM
03:35
Clear
52°F / 11°C 43°F / 6°C 72% 29.53 in
(1000 mb)
W 5.8 mph
(W 9 kph)
- 10SM
03:15
Clear
50°F / 10°C 43°F / 6°C 76% 29.53 in
(1000 mb)
W 5.8 mph
(W 9 kph)
- 10SM
02:55
Clear
50°F / 10°C 43°F / 6°C 76% 29.53 in
(1000 mb)
W 3.5 mph
(W 6 kph)
- 10SM
02:35
Clear
52°F / 11°C 43°F / 6°C 72% 29.53 in
(1000 mb)
W 5.8 mph
(W 9 kph)
- 10SM
02:15
Clear
52°F / 11°C 43°F / 6°C 72% 29.53 in
(1000 mb)
W 4.6 mph
(W 7 kph)
- 10SM
01:55
Clear
50°F / 10°C 43°F / 6°C 76% 29.53 in
(1000 mb)
SSW 5.8 mph
(SSW 9 kph)
- 10SM
01:35
Clear
50°F / 10°C 43°F / 6°C 76% 29.56 in
(1001 mb)
SW 5.8 mph
(SW 9 kph)
- 10SM
01:15
Clear
50°F / 10°C 43°F / 6°C 76% 29.56 in
(1001 mb)
SW 4.6 mph
(SW 7 kph)
- 10SM
00:55
Clear
50°F / 10°C 45°F / 7°C 82% 29.56 in
(1001 mb)
SW 5.8 mph
(SW 9 kph)
- 10SM
00:35
Clear
52°F / 11°C 45°F / 7°C 77% 29.53 in
(1000 mb)
SW 8.1 mph
(SW 13 kph)
- 10SM
00:15
Clear
54°F / 12°C 45°F / 7°C 72% 29.56 in
(1001 mb)
SSW 6.9 mph
(SSW 11 kph)
- 10SM
Time Weather Temperature Dewpoint Humidity Pressure Winds Precip Visibility


Weather for websites

WeatherForYou.com, LLC is not responsible for any damages or problems caused by this service. Current weather conditions are obtained from the closest station including government and personal stations which may have varying degrees of accuracy. Weather forecasts are derived from the NOAA NDFD. Like all things, this site belongs to Jesus Christ... He just trusts me to maintain it. If you have any questions or comments email webmaster@weatherforyou.com

Copyright © 2014, WeatherForYou.com LLC. All rights reserved.